IU7TPK-1 Weather Reports


time (UTC)temp
C
wind
direction
speed
KPH
gust
KPH
rain 1hr
cm
rain 24hr
cm
rain mn
cm
humidity
%
barometer
mb
20260906053011 27 188 0.0 4.8 0.00 0.00 0.00 42 1013.0
20260906052509 27 167 0.0 4.8 0.00 0.00 0.00 43 1013.0
20260906051512 26 162 0.0 4.8 0.00 0.00 0.00 44 1013.0
20260906050509 25 194 0.0 3.2 0.00 0.00 0.00 45 1013.0
20260906045509 25 0 0.0 0.0 0.00 0.00 0.00 45 1013.0
20260906045008 25 0 0.0 0.0 0.00 0.00 0.00 45 1013.0
20260906044512 25 90 0.0 3.2 0.00 0.00 0.00 45 1013.0
20260906044009 25 90 0.0 3.2 0.00 0.00 0.00 45 1012.0
20260906043509 25 0 0.0 0.0 0.00 0.00 0.00 46 1012.0
20260906043011 25 0 0.0 0.0 0.00 0.00 0.00 46 1012.0
20260906042509 25 0 0.0 0.0 0.00 0.00 0.00 46 1013.0
20260906042009 25 0 0.0 0.0 0.00 0.00 0.00 47 1013.0
20260906041511 25 154 0.0 3.2 0.00 0.00 0.00 46 1013.0
20260906041009 25 154 0.0 3.2 0.00 0.00 0.00 47 1012.0
20260906040509 24 0 0.0 0.0 0.00 0.00 0.00 47 1012.0
20260906040011 24 0 0.0 0.0 0.00 0.00 0.00 48 1012.0
20260906035009 24 0 0.0 0.0 0.00 0.00 0.00 48 1012.0
20260906034511 24 75 0.0 3.2 0.00 0.00 0.00 48 1012.0
20260906034008 24 75 0.0 3.2 0.00 0.00 0.00 48 1012.0
20260906033011 24 75 0.0 3.2 0.00 0.00 0.00 48 1012.0
20260906032508 24 104 0.0 3.2 0.00 0.00 0.00 48 1012.0
20260906032009 24 140 0.0 3.2 0.00 0.00 0.00 48 1012.0
20260906031511 24 302 0.0 3.2 0.00 0.00 0.00 48 1012.0
20260906031008 24 10 0.0 4.8 0.00 0.00 0.00 48 1012.0
20260906030508 24 45 0.0 4.8 0.00 0.00 0.00 49 1012.0
20260906030011 24 46 3.2 4.8 0.00 0.00 0.00 49 1012.0
20260906025509 24 0 0.0 0.0 0.00 0.00 0.00 50 1012.0
20260906024511 24 0 0.0 0.0 0.00 0.00 0.00 50 1012.0
20260906024009 24 0 0.0 0.0 0.00 0.00 0.00 50 1012.0
20260906022509 24 45 0.0 3.2 0.00 0.00 0.00 50 1012.0
20260906022009 24 0 0.0 0.0 0.00 0.00 0.00 51 1012.0
20260906021009 24 0 0.0 0.0 0.00 0.00 0.00 52 1012.0
20260906020508 24 0 0.0 0.0 0.00 0.00 0.00 51 1012.0
20260906020011 24 0 0.0 0.0 0.00 0.00 0.00 51 1012.0
20260906015509 24 45 0.0 3.2 0.00 0.00 0.00 51 1013.0
20260906015008 24 45 0.0 3.2 0.00 0.00 0.00 51 1013.0
20260906014511 24 0 0.0 0.0 0.00 0.00 0.00 51 1013.0
20260906014009 24 0 0.0 0.0 0.00 0.00 0.00 50 1012.0
20260906013509 24 0 0.0 0.0 0.00 0.00 0.00 50 1012.0
20260906013011 24 0 0.0 0.0 0.00 0.00 0.00 49 1012.0
20260906012009 24 45 0.0 3.2 0.00 0.00 0.00 49 1012.0
20260906011511 24 45 0.0 3.2 0.00 0.00 0.00 48 1012.0
20260906011009 23 45 0.0 3.2 0.00 0.00 0.00 48 1013.0
20260906010509 24 45 0.0 3.2 0.00 0.00 0.00 48 1013.0
20260906010010 24 44 0.0 3.2 0.00 0.00 0.00 46 1013.0
20260906005509 23 45 0.0 4.8 0.00 0.00 0.00 45 1013.0
20260906004511 24 44 0.0 4.8 0.00 0.00 0.00 44 1013.0
20260906004009 24 45 3.2 4.8 0.00 0.00 0.00 44 1013.0
20260906003509 24 45 0.0 4.8 0.00 0.00 0.00 44 1013.0
20260906003011 24 45 0.0 4.8 0.00 0.00 0.00 44 1013.0
20260906002509 24 45 0.0 3.2 0.00 0.00 0.00 44 1013.0
20260906002009 24 45 0.0 3.2 0.00 0.00 0.00 44 1013.0
20260906001511 24 45 0.0 4.8 0.00 0.00 0.00 44 1013.0
20260906001008 24 45 0.0 4.8 0.00 0.00 0.00 44 1013.0
20260906000509 24 45 0.0 4.8 0.00 0.00 0.00 44 1013.0
20260906000011 24 47 3.2 4.8 0.00 0.00 0.00 44 1013.0
20260905235009 24 50 3.2 4.8 0.00 0.00 0.00 44 1013.0
20260905234009 24 49 0.0 3.2 0.00 0.00 0.00 44 1013.0
20260905233509 24 49 0.0 3.2 0.00 0.00 0.00 44 1013.0
20260905233011 24 49 0.0 4.8 0.00 0.00 0.00 44 1013.0
20260905232508 24 50 0.0 4.8 0.00 0.00 0.00 44 1013.0
20260905232009 24 50 0.0 4.8 0.00 0.00 0.00 44 1013.0
20260905230011 25 50 0.0 4.8 0.00 0.00 0.00 44 1013.0
20260905225508 25 50 0.0 4.8 0.00 0.00 0.00 44 1013.0
20260905224511 25 50 0.0 3.2 0.00 0.00 0.00 44 1013.0
20260905224008 25 50 0.0 3.2 0.00 0.00 0.00 44 1013.0
20260905223508 25 50 0.0 3.2 0.00 0.00 0.00 43 1013.0
20260905223011 25 50 0.0 3.2 0.00 0.00 0.00 43 1013.0
20260905221009 25 50 0.0 3.2 0.00 0.00 0.00 44 1013.0
20260905220509 25 50 0.0 3.2 0.00 0.00 0.00 44 1013.0
20260905215009 25 50 0.0 3.2 0.00 0.00 0.00 44 1013.0
20260905214008 25 50 0.0 4.8 0.00 0.00 0.00 44 1013.0
20260905213508 25 50 0.0 4.8 0.00 0.00 0.00 44 1013.0
20260905213011 25 50 0.0 4.8 0.00 0.00 0.00 44 1013.0
20260905212509 25 50 0.0 4.8 0.00 0.00 0.00 44 1013.0
20260905212009 25 50 0.0 3.2 0.00 0.00 0.00 44 1013.0
20260905211511 25 51 0.0 3.2 0.00 0.00 0.00 44 1013.0
20260905211008 26 51 0.0 3.2 0.00 0.00 0.00 43 1013.0
20260905210508 26 50 0.0 3.2 0.00 0.00 0.00 43 1013.0
20260905205009 26 51 0.0 3.2 0.00 0.00 0.00 43 1013.0
20260905204511 26 51 0.0 3.2 0.00 0.00 0.00 43 1013.0
20260905204009 26 51 0.0 3.2 0.00 0.00 0.00 43 1013.0
20260905203509 26 50 0.0 3.2 0.00 0.00 0.00 43 1013.0
20260905203011 26 50 0.0 3.2 0.00 0.00 0.00 43 1013.0
20260905202509 26 50 0.0 3.2 0.00 0.00 0.00 43 1013.0
20260905202009 26 51 0.0 3.2 0.00 0.00 0.00 42 1013.0
20260905201008 27 51 0.0 3.2 0.00 0.00 0.00 42 1013.0
20260905200508 27 51 0.0 3.2 0.00 0.00 0.00 42 1013.0
20260905200011 27 51 0.0 3.2 0.00 0.00 0.00 42 1013.0
20260905195509 27 0 0.0 0.0 0.00 0.00 0.00 42 1013.0
20260905195009 27 20 0.0 3.2 0.00 0.00 0.00 42 1013.0
20260905193508 27 0 0.0 0.0 0.00 0.00 0.00 42 1013.0
20260905193011 28 0 0.0 0.0 0.00 0.00 0.00 42 1013.0
20260905192509 28 0 0.0 0.0 0.00 0.00 0.00 42 1013.0
20260905192009 28 0 0.0 0.0 0.00 0.00 0.00 42 1013.0
20260905191511 28 0 0.0 0.0 0.00 0.00 0.00 41 1013.0
20260905191008 28 0 0.0 0.0 0.00 0.00 0.00 41 1013.0
20260905190508 28 0 0.0 0.0 0.00 0.00 0.00 41 1013.0
20260905190011 28 0 0.0 0.0 0.00 0.00 0.00 41 1013.0
20260905185508 28 0 0.0 0.0 0.00 0.00 0.00 41 1012.0
20260905184009 29 288 0.0 3.2 0.00 0.00 0.00 41 1012.0
20260905183509 29 288 0.0 3.2 0.00 0.00 0.00 41 1012.0
20260905183011 29 288 0.0 3.2 0.00 0.00 0.00 41 1012.0
20260905182508 29 289 0.0 3.2 0.00 0.00 0.00 41 1012.0
20260905182008 29 290 0.0 3.2 0.00 0.00 0.00 42 1012.0
20260905181510 29 288 0.0 3.2 0.00 0.00 0.00 42 1012.0
20260905180509 29 284 0.0 3.2 0.00 0.00 0.00 42 1012.0
20260905175508 30 0 0.0 0.0 0.00 0.00 0.00 42 1012.0
20260905175008 30 284 0.0 3.2 0.00 0.00 0.00 42 1012.0
20260905174510 30 285 0.0 4.8 0.00 0.00 0.00 42 1012.0
20260905174008 30 276 0.0 4.8 0.00 0.00 0.00 42 1012.0
20260905173508 30 237 0.0 4.8 0.00 0.00 0.00 42 1012.0
20260905173011 30 228 0.0 4.8 0.00 0.00 0.00 43 1012.0
20260905172509 30 222 3.2 4.8 0.00 0.00 0.00 43 1012.0
20260905172009 30 216 0.0 4.8 0.00 0.00 0.00 44 1012.0
20260905171511 30 206 3.2 4.8 0.00 0.00 0.00 44 1012.0
20260905170508 31 201 0.0 4.8 0.00 0.00 0.00 38 1012.0
20260905165508 31 206 0.0 4.8 0.00 0.00 0.00 38 1011.0
20260905165008 31 208 3.2 4.8 0.00 0.00 0.00 38 1011.0
20260905164008 31 206 3.2 4.8 0.00 0.00 0.00 35 1012.0
20260905163508 32 215 3.2 4.8 0.00 0.00 0.00 34 1012.0
20260905163010 32 209 4.8 4.8 0.00 0.00 0.00 33 1012.0
20260905162508 32 176 0.0 6.4 0.00 0.00 0.00 32 1011.0
20260905162008 32 166 0.0 6.4 0.00 0.00 0.00 31 1011.0
20260905161510 32 168 0.0 6.4 0.00 0.00 0.00 31 1011.0
20260905161008 32 173 0.0 6.4 0.00 0.00 0.00 30 1011.0
20260905160508 32 195 3.2 6.4 0.00 0.00 0.00 30 1011.0
20260905160010 33 208 4.8 6.4 0.00 0.00 0.00 29 1011.0
20260905155508 33 202 3.2 6.4 0.00 0.00 0.00 29 1011.0
20260905155008 33 193 3.2 6.4 0.00 0.00 0.00 29 1011.0
20260905154510 33 190 3.2 6.4 0.00 0.00 0.00 29 1011.0
20260905154008 33 189 3.2 6.4 0.00 0.00 0.00 29 1011.0
20260905153011 33 162 3.2 8.0 0.00 0.00 0.00 28 1011.0
20260905152508 33 157 3.2 6.4 0.00 0.00 0.00 28 1011.0
20260905152008 33 162 4.8 6.4 0.00 0.00 0.00 28 1011.0
20260905151510 33 155 4.8 9.7 0.00 0.00 0.00 28 1011.0
20260905151008 33 162 6.4 9.7 0.00 0.00 0.00 28 1011.0
20260905150508 33 155 4.8 6.4 0.00 0.00 0.00 28 1011.0
20260905150011 34 146 3.2 6.4 0.00 0.00 0.00 27 1011.0
20260905145009 34 155 4.8 6.4 0.00 0.00 0.00 28 1011.0
20260905144511 34 179 0.0 6.4 0.00 0.00 0.00 28 1011.0
20260905144008 34 190 3.2 6.4 0.00 0.00 0.00 28 1011.0
20260905143508 35 189 4.8 6.4 0.00 0.00 0.00 28 1011.0
20260905143010 35 183 6.4 6.4 0.00 0.00 0.00 27 1011.0
20260905142508 35 182 4.8 8.0 0.00 0.00 0.00 28 1012.0
20260905142008 35 170 6.4 8.0 0.00 0.00 0.00 27 1012.0
20260905141511 35 161 4.8 8.0 0.00 0.00 0.00 27 1012.0
20260905141008 35 172 4.8 9.7 0.00 0.00 0.00 27 1012.0
20260905140508 35 169 0.0 9.7 0.00 0.00 0.00 27 1012.0
20260905135508 35 169 3.2 8.0 0.00 0.00 0.00 27 1012.0
20260905135008 35 159 0.0 9.7 0.00 0.00 0.00 27 1012.0
20260905134511 35 150 6.4 9.7 0.00 0.00 0.00 27 1012.0
20260905134009 35 164 4.8 8.0 0.00 0.00 0.00 27 1012.0
20260905133011 35 168 4.8 9.7 0.00 0.00 0.00 27 1012.0
20260905132508 35 157 4.8 9.7 0.00 0.00 0.00 27 1012.0
20260905132008 35 153 3.2 8.0 0.00 0.00 0.00 27 1012.0
20260905131510 36 170 3.2 8.0 0.00 0.00 0.00 27 1012.0
20260905131008 35 170 6.4 8.0 0.00 0.00 0.00 27 1012.0
20260905130508 35 161 6.4 9.7 0.00 0.00 0.00 27 1012.0
20260905130010 35 176 4.8 9.7 0.00 0.00 0.00 27 1012.0
20260905124008 36 162 4.8 9.7 0.00 0.00 0.00 27 1012.0
20260905123508 36 151 0.0 8.0 0.00 0.00 0.00 27 1012.0
20260905123010 36 160 6.4 6.4 0.00 0.00 0.00 27 1012.0
20260905122508 36 171 3.2 8.0 0.00 0.00 0.00 27 1012.0
20260905122008 36 170 4.8 8.0 0.00 0.00 0.00 27 1012.0
20260905121510 36 166 4.8 6.4 0.00 0.00 0.00 27 1012.0
20260905121008 36 156 3.2 9.7 0.00 0.00 0.00 27 1012.0
20260905120508 36 162 6.4 9.7 0.00 0.00 0.00 27 1012.0
20260905120010 35 166 4.8 9.7 0.00 0.00 0.00 27 1012.0
20260905115508 36 179 6.4 9.7 0.00 0.00 0.00 27 1012.0
20260905115007 35 192 0.0 9.7 0.00 0.00 0.00 27 1012.0
20260905114511 35 192 4.8 8.0 0.00 0.00 0.00 27 1012.0
20260905114008 35 201 3.2 8.0 0.00 0.00 0.00 27 1012.0
20260905113508 35 184 3.2 8.0 0.00 0.00 0.00 27 1012.0
20260905113010 35 157 0.0 8.0 0.00 0.00 0.00 27 1012.0
20260905112508 35 142 4.8 8.0 0.00 0.00 0.00 27 1012.0
20260905112008 35 153 4.8 8.0 0.00 0.00 0.00 27 1012.0
20260905111510 35 179 4.8 8.0 0.00 0.00 0.00 27 1012.0
20260905111008 35 175 4.8 9.7 0.00 0.00 0.00 28 1013.0
20260905110508 35 167 4.8 9.7 0.00 0.00 0.00 28 1013.0
20260905110011 34 168 6.4 9.7 0.00 0.00 0.00 28 1013.0
20260905105507 34 157 3.2 6.4 0.00 0.00 0.00 28 1013.0
20260905105008 34 152 0.0 6.4 0.00 0.00 0.00 28 1013.0
20260905103507 34 163 3.2 8.0 0.00 0.00 0.00 28 1013.0
20260905103011 34 144 3.2 8.0 0.00 0.00 0.00 28 1013.0
20260905102507 34 160 4.8 9.7 0.00 0.00 0.00 28 1013.0
20260905102008 34 178 4.8 9.7 0.00 0.00 0.00 28 1013.0
20260905101511 33 165 3.2 8.0 0.00 0.00 0.00 28 1013.0
20260905100011 33 192 4.8 8.0 0.00 0.00 0.00 28 1013.0
20260905095008 33 148 0.0 8.0 0.00 0.00 0.00 29 1013.0
20260905094511 33 144 4.8 8.0 0.00 0.00 0.00 29 1013.0
20260905094008 33 160 4.8 8.0 0.00 0.00 0.00 29 1013.0
20260905093010 33 170 3.2 6.4 0.00 0.00 0.00 30 1013.0
20260905092508 33 177 4.8 8.0 0.00 0.00 0.00 30 1013.0
20260905091510 33 188 0.0 6.4 0.00 0.00 0.00 30 1013.0
20260905091008 33 153 3.2 6.4 0.00 0.00 0.00 30 1013.0
20260905090508 33 168 3.2 6.4 0.00 0.00 0.00 30 1013.0
20260905090010 33 167 3.2 6.4 0.00 0.00 0.00 30 1013.0
20260905085008 32 161 4.8 8.0 0.00 0.00 0.00 30 1013.0
20260905084510 32 183 4.8 8.0 0.00 0.00 0.00 30 1013.0
20260905084008 32 192 0.0 6.4 0.00 0.00 0.00 30 1013.0
20260905083507 32 172 4.8 6.4 0.00 0.00 0.00 30 1013.0
20260905083010 32 167 0.0 6.4 0.00 0.00 0.00 30 1013.0
20260905082508 32 173 4.8 8.0 0.00 0.00 0.00 30 1013.0
20260905082007 32 165 4.8 8.0 0.00 0.00 0.00 30 1013.0
20260905081510 32 151 4.8 6.4 0.00 0.00 0.00 30 1013.0
20260905081008 32 149 0.0 6.4 0.00 0.00 0.00 30 1013.0
20260905080507 32 156 0.0 6.4 0.00 0.00 0.00 30 1013.0
20260905080011 31 175 3.2 6.4 0.00 0.00 0.00 31 1013.0
20260905075507 31 169 0.0 4.8 0.00 0.00 0.00 31 1013.0
20260905074510 31 141 0.0 4.8 0.00 0.00 0.00 31 1013.0
20260905074008 31 144 0.0 4.8 0.00 0.00 0.00 32 1013.0
20260905073507 31 120 0.0 3.2 0.00 0.00 0.00 32 1013.0
20260905073010 31 117 0.0 3.2 0.00 0.00 0.00 32 1013.0
20260905072508 30 117 0.0 3.2 0.00 0.00 0.00 33 1013.0
20260905072007 30 103 0.0 3.2 0.00 0.00 0.00 33 1013.0
20260905071510 30 101 0.0 3.2 0.00 0.00 0.00 33 1013.0
20260905071008 30 0 0.0 0.0 0.00 0.00 0.00 33 1013.0
20260905070507 30 0 0.0 0.0 0.00 0.00 0.00 34 1013.0
20260905070010 29 0 0.0 0.0 0.00 0.00 0.00 34 1013.0
20260905065508 29 0 0.0 0.0 0.00 0.00 0.00 34 1013.0
20260905065008 28 0 0.0 0.0 0.00 0.00 0.00 35 1013.0
20260905064510 28 0 0.0 0.0 0.00 0.00 0.00 34 1013.0
20260905064008 28 0 0.0 0.0 0.00 0.00 0.00 35 1013.0
20260905063010 27 0 0.0 0.0 0.00 0.00 0.00 36 1013.0
20260905062507 27 0 0.0 0.0 0.00 0.00 0.00 37 1013.0
20260905062007 27 0 0.0 0.0 0.00 0.00 0.00 37 1013.0
20260905061510 27 0 0.0 0.0 0.00 0.00 0.00 37 1013.0
20260905060507 26 0 0.0 0.0 0.00 0.00 0.00 38 1013.0
20260905060011 26 0 0.0 0.0 0.00 0.00 0.00 38 1013.0
20260905055507 25 0 0.0 0.0 0.00 0.00 0.00 38 1013.0
20260905055008 25 0 0.0 0.0 0.00 0.00 0.00 39 1013.0
20260905054510 25 0 0.0 0.0 0.00 0.00 0.00 39 1013.0
20260905054007 25 45 0.0 3.2 0.00 0.00 0.00 39 1013.0